RH
4 5 5 5 5 5 4 4 5 5 6 7 7 7 7 6 5 5 5 5 5 5 5 6 7 8 8 10 16 18 18 21 22 21 18 22 24 24 24 29 47 66 75 89 96 96 97 98 100 100 100 96 98 94
5 5 5 5 5 5 5 6 7 7 6 7 7 6 5 5 4 5 5 5 5 6 7 8 8 9 11 15 17 20 21 23 23 22 23 25 24 28 34 60 79 86 90 99 100 97 99 100 100 98 100 96 84 75
6 6 5 6 7 7 7 7 7 7 7 6 6 6 5 5 5 5 5 6 7 7 8 10 11 13 15 17 19 21 24 25 24 24 24 25 26 34 61 82 93 97 100 100 99 96 100 100 100 100 89 79 67 52
6 6 6 7 7 7 7 7 7 7 7 6 6 6 6 6 6 7 7 8 8 9 10 12 14 16 18 20 24 24 26 26 26 26 26 30 45 67 92 95 99 100 99 99 99 100 100 100 93 81 77 73 61 51
7 7 8 8 8 8 8 8 8 8 8 7 7 7 8 8 8 8 9 10 12 13 13 15 15 19 24 24 26 26 26 27 27 28 32 51 70 84 91 99 98 99 100 99 99 100 100 93 86 86 82 65 50 36
8 8 8 9 9 8 9 9 9 10 9 10 10 9 8 8 9 10 11 13 15 18 18 25 22 24 26 26 26 28 28 28 32 43 60 66 84 90 96 99 99 100 100 100 97 100 90 88 81 85 69 52 36 31
8 8 8 9 9 10 10 11 12 12 11 11 10 9 10 13 14 16 19 20 22 24 24 24 26 27 27 28 31 34 35 43 56 71 78 85 82 89 96 98 88 98 98 97 94 83 80 80 79 70 55 41 33 27
7 8 8 9 10 9 10 12 13 12 13 12 10 11 15 16 18 21 24 24 25 25 26 28 31 36 38 48 53 57 62 66 71 79 84 80 87 95 95 91 93 99 93 88 86 79 77 75 65 54 42 37 30 24
7 7 8 8 9 9 10 11 12 12 12 11 10 12 16 19 21 23 25 29 29 29 29 30 32 41 47 66 74 74 74 77 79 84 81 86 90 93 82 84 78 81 79 77 73 70 62 56 51 38 34 35 26 25
8 8 8 8 8 8 9 9 10 11 12 14 15 15 15 18 24 27 30 31 31 33 35 41 43 51 58 61 67 71 80 83 89 83 89 86 84 84 74 74 75 73 64 59 53 53 50 43 36 35 34 29 28 28
6 7 7 7 8 9 10 11 13 18 19 18 18 21 28 30 31 32 32 34 36 41 47 53 65 69 64 72 70 74 78 85 90 91 84 81 76 74 65 51 51 46 44 42 40 36 33 33 32 32 29 26 29 30
7 7 8 9 10 10 11 14 16 16 14 17 24 29 32 33 33 35 36 38 41 47 58 64 66 70 70 78 83 87 92 87 86 78 74 64 56 52 47 42 35 27 24 25 24 26 26 27 27 25 24 25 28 28
7 8 8 9 8 8 10 12 14 16 20 26 31 33 32 34 40 42 40 41 45 48 51 57 68 74 84 89 89 85 80 72 64 60 53 47 42 30 23 20 19 18 17 16 16 16 18 19 21 22 23 24 24 26
8 8 8 8 10 15 18 18 18 23 28 32 35 38 41 42 42 38 41 49 52 55 65 79 85 90 92 87 78 75 68 60 55 46 37 30 23 20 18 16 14 13 12 12 12 13 14 16 17 16 20 21 21 23
8 8 9 11 16 17 18 20 25 30 36 39 42 42 41 41 44 47 54 51 53 67 81 88 95 95 82 75 69 61 56 48 41 33 27 24 20 16 13 12 11 10 10 10 10 11 12 13 14 15 17 18 19 22
9 10 11 12 15 18 21 26 30 33 38 39 38 40 43 42 43 47 47 51 64 75 91 88 78 74 70 64 56 53 44 37 34 29 23 19 15 14 12 11 10 10 9 10 10 11 12 12 13 14 16 18 19 22
10 11 14 16 18 21 25 28 32 38 40 40 37 36 35 38 44 50 56 58 65 65 71 69 72 70 60 55 48 40 39 35 29 22 17 17 15 13 12 11 10 9 9 10 10 11 12 12 13 14 15 16 18 20
10 13 15 16 20 26 29 34 43 46 41 37 39 42 46 50 58 58 57 61 62 64 68 66 59 55 47 41 41 39 36 32 24 19 18 17 15 12 11 10 9 9 9 10 11 12 12 12 13 14 15 17 18 19
11 13 15 19 21 27 35 38 40 36 38 43 45 47 50 52 52 54 55 56 59 63 60 55 52 48 44 41 38 37 35 31 23 19 18 16 14 13 11 10 10 10 10 11 11 12 12 12 13 14 16 16 17 20
12 14 19 22 25 27 29 31 34 37 41 46 48 49 51 54 54 53 53 54 54 53 50 49 50 47 44 40 38 36 34 30 24 21 18 16 14 13 11 11 10 11 11 11 12 12 13 14 15 16 17 19 21 25
10 12 17 21 24 25 26 29 34 38 42 44 48 49 49 51 51 52 52 54 52 49 47 46 46 43 39 40 37 34 32 29 23 22 19 16 15 14 13 12 11 12 13 14 14 13 14 15 17 18 20 22 30 51
9 10 12 17 19 26 27 28 32 35 35 38 43 48 49 51 53 53 56 54 50 49 47 47 43 41 41 39 37 34 32 29 24 22 20 17 16 15 14 14 13 15 16 18 18 16 17 20 24 30 40 59 71 73
11 12 11 13 16 19 26 29 30 33 34 38 40 41 44 46 48 52 50 50 50 50 49 47 41 41 40 37 35 31 29 25 24 23 20 18 17 15 16 16 16 19 21 22 23 24 30 37 49 62 66 74 80 83
10 12 13 16 17 20 20 26 30 32 32 34 35 38 39 41 44 45 46 44 45 47 46 43 39 36 33 31 29 30 28 26 22 23 21 19 17 16 17 18 18 22 25 28 28 41 49 59 70 72 74 77 80 83
9 11 12 15 18 21 23 24 27 30 34 38 39 38 38 37 38 39 38 38 38 39 39 35 31 29 29 27 24 28 25 24 23 20 20 19 17 18 17 19 20 24 27 32 35 50 55 63 73 77 77 81 84 83
8 9 9 11 13 14 18 20 24 26 28 30 30 30 32 33 34 33 31 29 28 27 27 27 25 22 20 20 20 22 23 20 21 20 17 18 18 17 18 18 19 22 26 33 38 48 59 66 72 77 80 84 84 83
8 8 9 9 10 11 11 12 14 14 14 16 17 18 19 18 19 19 19 19 18 19 20 21 20 18 18 17 18 19 19 17 17 18 16 15 16 16 16 18 18 21 24 26 33 37 48 60 68 71 76 78 77 75
8 8 8 9 10 10 10 11 11 11 12 13 14 14 14 15 15 15 14 14 15 16 16 15 16 16 15 14 15 15 15 15 14 15 14 14 14 15 15 16 18 19 21 23 26 32 37 50 60 65 66 69 70 69
6 6 6 7 7 8 8 9 10 11 11 11 12 12 12 12 12 12 12 13 13 13 13 12 12 12 12 13 13 13 13 13 12 12 12 13 14 14 14 16 17 19 20 21 24 26 32 36 50 60 62 64 65 64
6 6 7 7 7 8 8 9 9 8 8 9 9 10 10 10 10 10 10 10 11 11 11 11 11 11 12 12 12 11 11 11 11 11 12 12 12 13 14 14 15 18 19 20 22 26 30 35 41 49 56 62 64 63
6 7 7 7 7 6 6 6 6 7 8 8 8 8 8 8 8 8 9 9 10 10 10 10 10 10 10 10 10 10 11 11 11 11 11 11 11 12 13 13 14 16 18 20 21 22 24 29 34 39 44 49 52 54
8 8 8 8 7 7 8 8 8 8 8 7 7 7 7 7 7 7 8 9 9 9 9 9 9 9 9 10 10 11 11 11 11 11 11 11 11 11 12 13 14 14 15 17 20 21 24 27 32 36 40 43 46 47
5 7 8 8 8 9 8 8 8 8 8 7 7 7 7 7 8 10 12 12 11 11 10 10 10 10 10 10 10 11 12 11 11 11 11 11 11 12 12 13 13 14 15 16 18 20 22 25 28 31 34 36 38 38
Wind_Speed
32 33 34 34 35 34 32 33 34 35 32 33 33 33 34 35 35 36 37 38 38 38 38 38 38 38 38 33 37 44 41 40 41 40 36 32 31 31 32 31 28 25 22 20 19 19 23 22 24 28 33 36 40 44
28 29 29 29 30 30 31 30 31 31 30 30 30 31 31 31 31 32 33 33 32 32 33 34 34 34 34 36 39 39 38 37 37 34 30 30 31 31 29 26 24 23 21 21 22 24 25 27 30 34 38 41 44 46
27 27 28 28 29 30 29 30 29 27 26 27 28 28 29 29 28 27 27 27 30 32 33 31 31 33 35 37 38 36 34 34 33 31 31 31 30 29 28 26 22 22 24 27 29 26 28 31 33 37 40 41 43 40
24 26 27 29 29 28 28 27 27 27 26 26 26 27 27 26 26 26 28 29 29 29 31 32 34 34 34 33 34 34 32 31 31 31 31 29 29 29 28 25 27 29 29 29 29 31 34 36 36 35 37 38 37 34
25 26 28 28 28 28 27 26 26 26 26 26 26 25 25 26 27 28 28 28 29 30 31 31 32 33 34 32 31 30 30 30 30 29 28 29 30 30 29 28 31 31 29 31 33 34 34 35 35 33 34 34 32 29
25 26 28 29 28 27 26 27 27 27 27 26 25 26 27 27 25 25 27 30 31 31 29 31 31 31 30 29 29 28 29 29 28 28 31 31 30 30 30 32 32 34 34 34 35 36 36 35 31 31 33 31 29 28
26 27 28 27 27 27 28 29 30 30 29 28 27 26 27 29 30 31 32 33 33 33 34 32 30 29 29 28 28 28 28 28 27 28 29 30 30 29 30 33 33 33 35 36 38 35 32 31 30 31 30 30 28 26
27 27 27 28 29 29 30 32 32 31 29 28 29 30 31 32 33 34 35 35 34 33 32 31 29 27 27 26 26 27 27 27 28 27 28 28 29 30 31 32 33 34 36 36 36 32 30 29 30 31 29 30 29 25
25 26 27 29 30 30 31 32 31 31 30 29 29 31 33 35 35 35 33 32 31 30 29 29 29 29 27 26 26 26 25 25 25 26 26 26 28 30 31 31 32 34 35 34 33 30 31 31 31 32 29 30 29 26
27 28 29 29 30 31 30 30 28 27 25 27 30 32 31 33 33 33 33 32 30 27 26 25 24 26 27 26 24 23 23 24 24 24 24 27 28 31 31 32 32 33 32 32 33 33 33 33 32 32 32 30 30 29
28 28 28 28 29 30 31 32 33 34 34 34 33 32 32 33 34 33 31 29 26 25 24 24 24 23 22 22 22 20 20 21 22 25 27 29 30 30 31 30 31 33 34 35 35 35 34 34 34 34 34 32 31 30
28 28 28 31 31 33 34 35 37 36 35 35 36 37 37 36 33 30 28 26 25 25 24 23 22 21 19 19 20 20 22 24 25 27 28 28 29 30 31 34 36 35 34 35 36 36 37 36 37 37 36 33 32 31
29 30 32 32 31 31 32 32 31 31 31 34 36 35 34 32 30 29 28 27 25 23 21 20 20 19 18 18 20 22 24 24 24 25 25 26 29 32 33 32 33 35 35 35 36 36 37 36 38 38 36 35 32 31
30 31 30 30 29 31 34 34 33 33 35 36 36 35 33 32 32 31 27 24 22 21 20 19 18 18 19 21 22 22 22 23 23 24 25 28 30 31 31 33 34 35 35 34 35 35 36 37 39 36 34 34 30 29
29 29 29 31 34 35 35 37 38 39 39 39 38 36 35 33 29 26 25 24 21 19 18 18 18 21 22 22 21 21 22 22 21 25 27 29 30 31 30 27 25 25 25 25 26 28 30 31 32 31 30 31 28 27
30 30 31 32 34 34 35 37 38 39 39 39 39 37 34 31 27 25 22 19 17 18 18 20 21 21 20 21 20 20 21 21 23 27 27 27 27 25 23 21 19 19 19 20 21 22 24 25 26 26 27 28 27 27
29 30 32 33 34 35 36 38 39 40 40 39 37 34 30 25 24 22 20 20 19 20 20 19 19 20 19 19 19 20 21 22 25 26 23 23 23 21 19 18 17 17 17 17 18 19 21 22 23 24 25 27 27 27
28 30 30 31 34 34 35 36 36 36 35 32 30 27 25 24 22 21 20 20 20 19 19 20 18 18 19 19 20 21 21 22 23 23 21 21 20 17 16 17 16 16 16 18 19 20 20 21 22 22 24 25 26 27
26 27 29 30 32 35 39 40 40 38 36 34 32 29 27 25 24 23 21 20 20 20 19 19 19 20 20 20 20 20 20 22 22 21 20 18 16 16 16 17 16 16 17 18 19 20 21 21 22 23 23 23 22 22
26 28 30 31 32 34 35 35 34 33 32 32 30 27 26 25 25 24 22 22 22 21 20 20 21 21 21 21 20 18 19 22 21 20 18 17 15 15 15 15 16 16 16 17 18 18 19 19 21 21 22 21 21 20
23 25 29 30 30 31 33 34 35 34 34 33 32 30 28 26 25 24 24 24 24 23 23 22 23 23 23 23 22 20 21 22 21 19 18 17 14 15 14 15 15 15 15 16 17 17 17 18 19 20 20 19 19 19
20 22 24 28 30 31 31 31 32 33 32 32 32 31 29 28 28 27 27 27 26 26 26 26 26 26 26 25 23 21 22 22 21 19 18 17 15 15 15 16 16 15 14 15 16 16 16 17 18 18 18 17 18 18
20 20 21 23 26 28 31 32 32 33 33 33 32 32 31 31 31 30 30 30 30 29 29 30 29 28 28 26 24 23 24 23 22 20 19 18 17 17 16 16 17 17 15 17 17 17 18 19 19 19 19 18 20 20
19 21 22 23 23 26 27 29 30 31 32 32 32 33 33 33 34 34 34 33 33 33 33 32 31 30 28 26 23 24 25 24 23 21 20 19 18 18 18 18 18 19 19 20 20 20 21 20 21 22 22 22 23 25
20 21 22 23 25 25 27 28 29 31 32 33 34 35 35 35 35 36 36 35 34 34 34 34 32 30 29 28 24 26 27 26 26 23 21 21 20 19 20 21 21 23 23 24 24 24 25 24 25 25 25 25 27 29
17 18 21 22 23 26 28 30 32 33 34 34 34 35 35 36 36 35 35 34 34 33 32 31 30 29 29 28 27 26 28 28 25 26 23 22 23 22 22 24 24 25 27 27 28 28 28 28 29 30 29 31 32 33
13 15 17 18 20 22 24 25 26 28 30 31 31 32 33 33 34 33 32 32 31 31 31 31 31 31 30 28 26 26 28 29 25 26 26 24 24 24 24 25 26 28 29 30 31 31 32 32 33 34 34 36 36 38
12 14 14 16 18 20 20 22 23 23 25 27 27 28 28 29 30 31 31 30 30 30 31 32 31 30 29 28 27 27 27 27 26 26 26 25 24 25 26 25 27 29 30 31 32 33 34 36 36 36 37 39 40 41
11 11 10 12 15 17 19 19 20 22 24 25 26 28 29 29 30 30 29 28 28 29 29 28 27 27 26 26 27 27 26 26 26 25 25 24 24 25 26 25 26 29 31 30 30 32 35 37 38 39 40 41 41 42
9 11 12 13 13 14 16 18 20 21 22 23 25 26 27 27 27 27 27 27 26 27 27 26 25 25 25 25 25 25 24 24 24 24 24 24 24 24 25 25 25 26 29 31 31 31 33 36 38 39 40 42 43 44
10 11 11 11 13 14 14 16 18 19 19 20 21 21 21 23 24 23 23 24 23 23 24 24 23 23 23 24 24 23 23 23 23 23 23 23 24 25 25 25 25 26 27 29 31 32 33 34 36 38 39 41 42 43
10 11 11 12 12 13 14 16 15 15 17 18 18 18 19 19 18 17 17 18 19 20 21 21 21 22 21 21 21 21 21 22 22 22 23 24 24 24 25 25 26 26 26 27 29 30 32 33 34 36 38 39 41 42
13 14 14 13 13 13 14 14 15 16 17 17 17 17 17 16 15 11 14 15 17 17 17 18 19 19 19 19 19 20 21 21 21 21 22 23 23 24 25 26 27 27 27 27 27 29 31 32 33 35 36 38 39 42
Wind_Direction
218 220 220 220 221 223 222 220 220 222 220 220 224 227 228 227 225 225 226 227 228 227 228 226 225 224 225 220 214 217 221 225 227 234 235 229 232 236 240 241 241 235 227 226 232 232 242 253 258 264 268 270 272 274
210 210 211 211 210 208 208 206 210 213 215 215 215 216 216 217 217 216 217 219 220 218 217 217 216 212 209 204 206 210 215 221 225 227 224 225 225 231 234 232 229 227 228 234 241 245 251 258 263 268 274 276 277 277
200 199 198 197 199 199 199 201 203 204 204 206 206 207 208 209 209 209 207 205 205 207 205 203 202 200 199 200 202 207 210 213 214 218 220 222 225 228 228 225 226 232 231 236 243 253 261 265 269 273 278 279 278 280
191 191 188 191 192 191 192 193 193 193 195 196 198 199 199 200 199 197 197 198 196 195 192 189 190 190 193 194 195 199 202 205 209 214 216 218 221 221 219 221 228 233 236 241 252 260 264 268 273 278 281 277 278 282
183 182 182 188 188 185 184 183 184 184 185 186 187 187 190 189 190 190 186 184 182 184 184 185 186 184 185 187 189 193 198 203 209 212 216 217 217 218 219 224 229 236 241 248 256 263 267 272 278 282 277 278 280 282
175 174 177 182 183 182 179 177 175 177 179 179 181 184 185 182 179 177 175 177 176 177 177 177 182 178 180 183 189 193 200 206 209 209 212 215 215 217 221 228 232 239 247 251 259 266 271 276 277 275 276 277 278 283
169 170 173 175 175 174 171 170 173 175 177 177 176 175 168 168 168 169 170 172 171 172 175 174 171 176 180 184 190 195 200 205 207 207 210 214 219 223 227 232 240 246 254 260 265 267 270 271 270 270 271 274 278 279
171 171 173 172 173 173 171 172 174 175 176 176 171 165 166 168 168 168 169 171 172 171 168 169 174 179 183 188 192 197 200 203 207 211 216 220 225 231 237 243 249 253 257 260 264 267 266 264 265 266 268 274 275 275
167 168 169 172 173 171 173 175 176 177 177 176 171 168 168 169 168 169 167 165 168 172 174 178 180 182 185 189 193 197 202 207 214 218 225 230 235 241 246 249 253 257 262 263 264 262 261 260 259 263 268 270 271 270
164 166 168 169 168 169 171 173 173 173 169 163 165 169 170 166 164 163 164 168 171 173 179 182 187 188 190 196 200 205 210 216 223 231 236 240 244 249 253 257 258 260 260 261 260 259 257 257 260 264 266 264 267 269
161 161 162 161 162 164 167 166 165 162 165 167 166 163 160 162 163 167 168 170 172 178 181 185 187 192 196 201 206 211 217 225 234 239 244 249 253 258 263 264 262 260 258 256 255 254 255 257 259 259 260 262 263 265
158 158 158 160 164 167 164 165 167 169 168 165 164 164 166 166 168 169 170 175 179 183 184 186 189 195 202 210 219 227 234 240 246 250 256 261 263 263 260 259 261 261 259 257 257 258 257 256 256 256 258 261 258 259
156 161 162 166 168 166 167 168 167 165 160 161 163 166 166 165 168 174 178 182 186 188 190 192 199 206 215 224 232 237 244 251 256 261 266 268 266 263 264 267 267 267 267 264 260 256 255 253 253 254 255 255 254 254
159 162 163 160 156 160 165 167 165 163 163 163 163 165 168 172 178 180 181 184 189 192 194 199 208 216 224 232 240 249 256 262 267 270 270 268 269 273 276 274 269 266 263 260 256 252 249 246 247 250 249 249 248 246
159 159 159 159 162 166 167 166 165 165 165 166 169 173 176 177 180 183 188 193 194 197 203 210 216 225 234 244 252 257 263 268 274 276 274 275 276 276 276 272 265 259 254 250 248 244 242 242 243 243 240 242 240 239
158 159 160 164 166 165 166 167 168 168 171 173 174 176 179 183 185 190 193 194 198 203 209 218 227 237 247 252 257 265 270 277 276 276 278 280 282 281 278 270 264 258 252 247 245 242 238 236 237 236 234 235 235 232
158 160 164 166 167 167 169 171 173 174 176 178 181 182 183 184 188 192 196 200 205 212 221 228 234 241 249 256 265 272 278 279 277 279 283 288 285 279 274 271 266 258 249 243 242 241 239 237 235 233 233 234 234 235
162 163 167 169 168 169 171 171 174 178 180 180 180 181 185 188 191 197 201 208 215 221 227 233 239 247 256 265 271 277 278 281 282 288 292 289 281 278 276 268 257 254 249 244 240 237 236 236 236 235 234 235 236 239
162 166 169 172 174 174 175 177 179 181 180 181 185 188 192 195 200 204 209 215 220 226 232 239 246 254 261 268 276 279 280 283 288 291 291 282 273 278 273 263 256 250 245 244 243 241 239 237 234 232 231 230 231 234
165 170 173 177 180 181 183 183 183 183 183 188 193 196 200 204 208 213 217 223 228 235 240 246 253 260 267 274 278 283 283 285 289 290 287 276 273 273 267 260 254 246 243 240 238 235 234 233 233 231 228 228 229 225
172 175 178 180 184 188 188 188 188 189 192 196 200 204 209 214 218 222 226 230 237 242 248 254 260 266 272 278 281 284 282 283 286 289 283 274 270 269 259 253 249 248 245 242 237 230 228 230 226 220 219 219 220 219
175 179 186 188 188 191 196 196 197 199 202 204 206 211 216 220 224 228 233 238 243 248 254 260 264 271 275 279 281 283 282 282 285 284 277 270 267 265 253 252 251 244 236 234 227 226 222 216 212 211 214 213 224 233
181 184 187 193 198 198 199 202 203 207 209 212 216 219 222 227 231 235 239 243 247 253 258 262 267 271 274 277 278 280 280 279 280 280 273 266 263 262 252 250 244 233 231 230 224 225 219 215 216 220 223 227 237 245
190 187 191 195 199 202 206 208 210 214 217 220 223 227 230 233 237 241 245 248 252 255 259 263 267 271 274 273 273 276 274 277 276 273 268 263 258 260 250 246 243 234 231 228 226 223 222 225 226 233 236 239 246 251
197 200 201 202 203 208 211 215 217 220 222 226 229 231 235 238 241 245 248 252 256 259 262 266 268 270 271 270 269 269 269 270 271 270 265 259 255 255 252 244 243 237 235 233 233 230 231 232 237 243 247 250 254 260
211 212 210 213 215 215 218 218 221 223 226 229 233 236 239 242 245 248 250 253 256 258 260 263 266 265 264 265 263 261 265 266 266 267 264 257 256 251 254 248 244 242 239 237 238 237 237 240 242 247 252 256 260 265
212 218 219 223 223 226 228 230 231 232 233 235 237 239 242 245 248 250 252 254 255 257 259 261 261 261 263 262 261 262 263 265 264 263 263 256 255 253 253 254 248 247 245 244 243 244 244 246 248 250 255 260 265 269
217 224 226 228 228 228 231 232 235 237 239 241 242 244 246 247 250 252 252 254 255 255 256 257 259 260 262 263 263 262 263 265 264 261 259 257 256 255 254 255 253 251 248 248 248 249 250 251 253 256 259 264 268 274
234 241 247 247 245 242 240 241 241 241 241 242 244 245 247 248 250 252 254 255 254 256 259 260 260 261 261 262 262 262 263 263 262 260 259 257 258 258 254 256 259 255 252 252 253 254 256 258 259 261 264 268 273 279
245 246 245 250 248 243 241 243 244 246 249 248 248 250 251 254 257 258 259 260 260 261 263 264 263 262 261 261 261 262 261 260 259 258 259 259 260 258 255 257 259 258 257 255 256 257 260 263 266 268 271 273 277 280
254 256 256 259 255 251 255 258 256 257 256 256 257 259 262 263 264 265 266 265 265 265 265 266 264 264 263 261 260 261 259 259 259 259 261 262 262 261 258 259 261 259 258 260 261 262 263 266 269 272 275 278 281 284
262 261 260 261 259 257 252 250 251 252 254 256 259 263 265 269 273 278 277 275 272 269 267 267 267 264 263 264 263 262 260 259 258 262 267 269 269 264 263 265 265 264 264 263 264 266 268 271 274 277 280 282 286 289
275 271 268 266 264 260 257 260 262 262 262 259 254 250 249 249 247 240 254 257 259 261 263 262 261 262 262 262 261 262 262 262 264 267 270 271 271 269 268 269 268 267 267 266 266 268 270 274 277 280 284 286 289 291